Flag for U.S.A. Weather past 2 weeks in Prudhoe Bay, Alaska, U.S.A.

Now
0 °F

Scattered clouds.


Feels Like: -26 °F
Forecast: -1 / 4 °F
Wind: 31 mph from East

Location: Deadhorse Airport

Current Time: Mar 31, 2015 at 8:55:21 AM

Latest Report: Mar 31, 2015 at 8:00 AM


Visibility: 1 mi

Pressure: 29.93 "Hg

Humidity: 75%

Dew point: -6 °F

Location of Prudhoe BayLocation

Historic Weather in Prudhoe Bay — Graph

°F

Prudhoe Bay temperature yesterday

Maximum temperature yesterday: 2 °F (at 12:53 PM)
Minimum temperature yesterday: -4 °F (at 3:53 AM)
Average temperature yesterday: -1 °F

Past Weeks' High & Low Weather Summary

 TemperatureHumidityPressure
High3 °F (Mar 18, 6:53 PM)87% (Mar 21, 11:53 AM)30.30 "Hg (Mar 21, 11:53 AM)
Low-33 °F (Mar 16, 6:53 AM)64% (Mar 24, 3:53 PM)29.61 "Hg (Mar 26, 1:53 PM)
Average-4 °F75%29.98 "Hg
* Reported Mar 16 6:53 AM — Mar 31 6:53 AM, Prudhoe Bay, Weather by CustomWeather, © 2015

Note: Actual official high and low records may vary slightly from our data, if they occured in-between our weather recording intervals... More about our weather records

Advertising

Prudhoe Bay weather history for previous 24 hours

 ConditionsComfort  
Time TempWeatherWind HumidityBarometerVisibility
6:53 AM
Tue, Mar 31
-1 °FPassing clouds.29 mph79%29.93 "Hg1 mi
5:53 AM-1 °FIce fog.30 mph75%29.92 "Hg1 mi
4:53 AM-1 °FIce fog.25 mph79%29.92 "Hg2 mi
3:53 AM-1 °FIce fog.32 mph79%29.91 "Hg1 mi
2:53 AM-1 °FIce fog.29 mph79%29.90 "Hg1 mi
1:53 AM0 °FIce fog.28 mph75%29.90 "Hg1 mi
12:53 AM0 °FIce fog.29 mph79%29.89 "Hg1 mi
11:53 PM
Mon, Mar 30
0 °FIce fog.26 mph79%29.88 "Hg1 mi
10:53 PM0 °FIce fog.30 mph79%29.88 "Hg1 mi
9:53 PM1 °FIce fog.26 mph79%29.88 "Hg1 mi
8:55 PM1 °FScattered clouds.29 mph79%29.86 "Hg1 mi
7:53 PM1 °FScattered clouds.26 mph79%29.86 "Hg1 mi
6:53 PM1 °FScattered clouds.31 mph79%29.86 "Hg1 mi
5:53 PM2 °FScattered clouds.30 mph76%29.87 "Hg1 mi
4:53 PM2 °FScattered clouds.33 mph76%29.86 "Hg1 mi
3:53 PM2 °FScattered clouds.30 mph76%29.86 "Hg1 mi
2:53 PM2 °FScattered clouds.30 mph76%29.87 "Hg1 mi
1:55 PM2 °FScattered clouds.30 mph76%29.86 "Hg1 mi
12:53 PM2 °FSunny.29 mph76%29.87 "Hg3 mi
11:53 AM0 °FSunny.28 mph75%29.87 "Hg3 mi
10:53 AM-1 °FSunny.31 mph75%29.87 "Hg3 mi
9:53 AM-2 °FSunny.29 mph75%29.88 "Hg3 mi
8:53 AM-3 °FSunny.26 mph75%29.88 "Hg3 mi
Weather by CustomWeather, © 2015

See weather overviewHow to use our weather pages